Location: Fons
(44.5827°N, 4.3498°E)
Time: 01:20:40
(UTC+00:00)

Daily predictions for brighter satellites

Satellite Brightness Start Highest point End
(mag) Time Altitude Azimuth Time Altitude Azimuth Time Altitude Azimuth
Cosmos 2263 Rocket 4.5 03:01:26 19° ENE 03:01:26 19° ENE 03:03:22 10° NE
CZ-4C R/B 4.4 03:25:49 15° SE 03:27:20 17° ESE 03:30:48 10° ENE
ATLAS 3B R/B 4.0 03:30:35 30° NNE 03:31:55 32° NE 03:38:12 10° E
Cosmos 1943 4.4 03:36:00 37° ESE 03:36:00 37° ESE 03:39:38 10° SE
Lacrosse 4 Rocket 4.0 03:38:11 19° ESE 03:38:11 19° ESE 03:39:40 10° ESE
ALOS 3.9 03:50:34 10° NNE 03:53:16 30° NE 03:53:16 30° NE
NOSS 3-2 (C) 3.9 04:00:08 73° WSW 04:00:29 74° WSW 04:09:03 10° SSE
NOSS 3-4 (A) 3.4 04:00:50 76° E 04:00:50 76° E 04:06:53 10° NE
NOSS 3-4 (C) 3.4 04:00:54 75° ESE 04:00:54 75° ESE 04:07:01 10° NE
CENTAUR R/B 3.0 04:01:35 68° W 04:02:30 73° WSW 04:11:20 10° SSE
Milstar 3 Cent rocket 4.3 04:00:16 22° SSW 04:02:38 26° SSE 04:11:26 10° ESE
SL-4 R/B 4.2 04:15:02 19° NE 04:15:02 19° NE 04:16:22 10° NE
Cosmos 1151 Rocket 3.9 04:17:01 45° SE 04:17:01 45° SE 04:20:17 10° SSE
Cosmos 1782 4.4 04:16:34 30° NE 04:17:28 34° ENE 04:21:09 10° SE
ATLAS 2AS CENTAUR R/B 3.0 04:15:30 28° SSW 04:20:09 83° SE 04:28:03 10° NE
ERS-2 4.2 04:17:54 10° SSE 04:19:17 22° SE 04:19:17 22° SE
Cosmos 1680 Rocket 4.2 04:20:02 30° N 04:22:24 52° ENE 04:27:35 10° SE
ATLAS 5 CENTAUR R/B 4.2 04:31:19 13° NNE 04:31:19 13° NNE 04:31:41 10° NNE
Atlas Centaur 2 4.2 04:26:41 17° SSW 04:28:47 20° S 04:32:55 10° SE
RESURS DK-1 3.8 04:27:06 10° S 04:30:56 37° ESE 04:34:48 10° NE
Lacrosse 5 1.7 04:32:03 81° WSW 04:32:18 89° NW 04:37:24 10° NE
ATLAS CENTAUR R/B 2.7 04:32:06 28° NNE 04:32:33 29° NE 04:36:00 10° ESE
ADEOS 3.5 04:29:40 10° NNE 04:34:56 90° WNW 04:40:09 10° SSW
Cosmos 1328 Rocket 3.5 04:35:39 70° NNE 04:36:08 81° E 04:40:33 10° S
Cosmos 2263 Rocket 2.8 04:43:11 38° NNW 04:43:11 38° NNW 04:47:35 10° NNE
Cosmos 2112 Rocket 4.4 04:38:53 23° N 04:42:13 65° ENE 04:47:31 10° SSE
Gbstr 26 Del rocket 2.9 04:43:34 64° NE 04:43:34 64° NE 04:47:13 10° ESE
SJ 16-02 2.0 04:45:52 41° N 04:45:52 41° N 04:48:56 10° NNE
Meteor 1-4 Rocket 4.2 04:46:48 23° S 04:46:48 23° S 04:48:11 10° S
Cosmos 1898 Rocket 3.8 04:46:45 10° S 04:52:01 70° ESE 04:57:20 10° NNE
Meteor 1-26 Rocket 4.1 04:48:59 15° NNW 04:53:47 70° W 04:59:19 10° S
FALCON 9 DEB 3.5 04:56:35 50° NE 04:56:35 50° NE 04:59:06 10° NE
FALCON 9 DEB 3.6 04:56:45 48° NE 04:56:45 48° NE 04:59:13 10° NE
Cosmos 1743 Rocket 4.3 04:55:17 10° S 04:59:37 54° E 05:03:59 10° NNE
FENGYUN 3A 3.8 04:54:32 10° N 04:59:45 49° WNW 05:04:56 10° SW
Cosmos 1408 Rocket 3.4 04:57:07 10° SSW 05:01:34 76° W 05:06:03 10° N
Cosmos 2181 Rocket 3.9 04:58:50 10° NNW 05:04:55 58° W 05:10:53 10° S
COSMO-SKYMED 1 2.4 05:00:46 10° S 05:05:06 75° WSW 05:07:59 21° NNW
USA 307 4.4 05:05:08 22° NNW 05:06:02 23° N 05:09:33 10° ENE
Cosmos 1709 Rocket 4.4 05:00:25 10° SW 05:06:22 41° WNW 05:12:22 10° N
Cosmos 1937 Rocket 3.7 05:04:00 10° S 05:09:06 71° ESE 05:14:17 10° NNE
USA 308 4.4 05:11:14 21° NNW 05:12:26 24° N 05:15:57 10° ENE
Meteor 2-3 Rocket 4.0 05:08:10 10° SSW 05:13:39 46° WNW 05:19:13 10° N
Lacrosse 4 Rocket 2.4 05:14:32 29° WSW 05:14:32 29° WSW 05:18:06 10° S
CZ-4C R/B 2.0 05:11:05 17° SW 05:14:54 70° NW 05:20:51 10° NE
Cosmos 2154 Rocket 4.5 05:09:17 10° S 05:15:23 63° E 05:21:36 10° NNE
MOS 1 Rocket 3.9 05:10:47 10° SSE 05:15:30 60° ENE 05:20:33 10° N
Cosmos 1943 4.3 05:17:53 24° WSW 05:17:53 24° WSW 05:22:07 10° SSW
Cosmos 1689 Rocket 1.9 05:15:18 10° S 05:18:08 61° WSW 05:18:12 61° W
CZ-4B R/B 3.0 05:13:56 10° N 05:18:26 71° WNW 05:22:47 10° SSW
FALCON 9 DEB 3.1 05:18:33 49° NW 05:18:46 50° NNW 05:21:55 10° NE
Meteor 1-10 Rocket 4.4 05:15:45 10° N 05:21:19 72° ENE 05:26:55 10° SSE
SAR-Lupe-4 3.9 05:18:35 10° S 05:21:57 41° W 05:22:38 37° WNW
Aureole 2 Rocket 2.9 05:20:41 10° S 05:23:06 42° ESE 05:25:33 10° NE
ATLAS 3B R/B 2.7 05:17:51 18° NW 05:23:12 74° WSW 05:30:24 10° SSE
Cosmos 1862 3.3 05:22:17 10° S 05:26:20 89° E 05:30:25 10° N
Genesis I 3.1 05:24:54 17° SW 05:27:40 60° NW 05:31:29 10° NNE
YAOGAN 6 3.6 05:25:42 10° NNE 05:29:07 47° E 05:32:29 10° S
deb Chang Zheng 4 4.2 05:28:13 10° N 05:32:06 32° WNW 05:35:58 10° SW
ALOS 3.4 05:28:33 10° NNW 05:31:45 22° WNW 05:31:45 22° WNW
Cosmos 858 Rocket 4.4 05:28:12 10° SSW 05:33:24 74° WNW 05:38:40 10° NNE
Cosmos 2327 Rocket 4.4 05:28:41 10° S 05:34:48 90° W 05:40:55 10° N
Cosmos 990 Rocket 4.2 05:29:47 10° SW 05:34:48 46° WNW 05:39:52 10° N
Cosmos 2074 Rocket 4.0 05:30:07 10° SSW 05:36:13 59° WNW 05:42:22 10° N
PSLV R/B 3.7 05:34:06 10° NNE 05:37:59 84° E 05:41:45 10° SSW
ASTRO F (AKARI) 4.1 05:36:51 10° N 05:39:55 66° WNW 05:43:03 10° SSW
USA 305 4.4 05:38:55 16° NW 05:41:31 27° NNE 05:45:12 10° ENE
BREEZE M DEB (TANK) 3.2 05:32:57 10° SW 05:41:35 64° SSE 05:44:29 10° ENE
Meteor 1-31 Rocket 4.4 05:38:59 10° NNW 05:40:29 17° NW 05:40:29 17° NW
Cosmos 405 Rocket 2.5 05:38:31 10° SSW 05:42:11 65° WNW 05:45:55 10° N
EO 1 Delta rocket 4.0 05:41:21 10° S 05:46:23 58° W 05:50:57 10° NNW
Cosmos 1812 2.7 05:43:58 10° NNW 05:47:44 56° W 05:51:29 10° S
Cosmos 1295 Rocket 4.5 05:41:40 10° S 05:47:44 90° SE 05:53:52 10° N
USA 306 4.3 05:47:01 14° NW 05:50:01 28° NNE 05:53:45 10° ENE
Cosmos 2228 Rocket 3.1 05:45:55 10° NNW 05:50:17 58° W 05:54:35 10° S
Cosmos 1515 Rocket 4.5 05:46:51 10° NNW 05:50:40 28° W 05:54:28 10° SSW
NOSS 3-4 (A) 4.4 05:48:19 15° W 05:52:11 28° NNW 05:57:39 10° NNE
CENTAUR R/B 4.5 05:48:50 14° WNW 05:52:17 18° WSW 05:57:44 10° SW
NOSS 3-4 (C) 4.4 05:48:24 15° W 05:52:18 28° NNW 05:57:47 10° NNE
SL-4 R/B 3.1 05:50:37 15° NW 05:53:06 29° N 05:56:20 10° ENE
Cosmos 1782 4.2 05:52:14 16° WNW 05:53:30 19° W 05:56:21 10° SW
Cosmos 2184 Rocket 4.3 05:47:48 10° SSW 05:53:49 46° WNW 05:59:57 10° N
Cosmos 1356 4.2 05:54:33 10° S 05:57:52 54° E 06:01:14 10° NNE
FALCON 9 DEB 4.1 05:56:58 17° WNW 05:58:47 27° NNW 06:01:37 10° NE
USA 234 3.6 05:52:23 10° NE 05:58:57 72° SE 06:05:28 10° SW
Spot 2 4.5 05:55:13 10° N 06:00:21 67° WNW 06:05:21 10° SSW
Cosmos 1844 Rocket 3.0 05:55:07 10° SW 06:00:30 45° WNW 06:05:58 10° NNE
EXPRESS MD2 4.2 06:03:36 13° WNW 06:07:14 72° NNE 06:15:24 10° ESE
Cosmos 1707 Rocket 3.7 06:02:59 10° N 06:07:20 80° E 06:11:39 10° S
COSMOS 2455 2.8 06:02:34 10° SW 06:08:37 80° WNW 06:14:41 10° NNE
RESURS DK-1 3.5 06:05:43 10° WSW 06:09:04 23° NW 06:12:27 10° N
MOS 1-B 4.3 06:03:28 10° NNE 06:09:18 79° WNW 06:15:06 10° SSW
BREEZE-M (TANK) 3.9 06:02:36 10° SW 06:10:14 47° SSE 06:12:55 10° ENE
ATLAS CENTAUR R/B 2.3 06:08:18 11° WNW 06:11:22 28° WSW 06:14:48 10° S
BREEZE-M DEB 3.8 06:02:57 11° WNW 06:11:46 52° SW 06:14:45 10° SE
ATLAS 2AS CENTAUR R/B 3.7 06:04:55 10° W 06:12:00 34° NW 06:18:56 10° NNE
NOAA 6 4.0 06:07:20 10° N 06:12:24 65° WNW 06:17:28 10° SSW
Cosmos 1500 Rocket 4.5 06:09:58 10° SW 06:13:35 26° WNW 06:17:14 10° NNW
Cosmos 1844 4.0 06:09:11 10° SW 06:14:27 43° WNW 06:19:46 10° NNE
H-2A R/B 3.7 06:11:34 10° N 06:14:55 28° WNW 06:18:14 10° SW
Lacrosse 5 2.9 06:11:29 10° W 06:15:51 28° NNW 06:20:13 10° NE
Atlas Centaur 2 4.2 06:13:15 10° SW 06:16:52 17° SSW 06:20:03 10° SSE
CZ-4B DEB 4.3 06:12:11 10° N 06:17:34 59° WNW 06:22:54 10° SSW
Cosmos 372 Rocket 4.0 06:12:49 10° SW 06:17:50 58° WNW 06:22:53 10° NNE
Cosmos 1437 Rocket 3.1 06:14:18 10° NNW 06:17:52 40° W 06:21:24 10° SSW
Okean O Rocket 1.7 06:16:41 10° NNE 06:21:10 87° WNW 06:25:37 10° SSW
Geosat 4.4 06:16:26 10° SE 06:21:24 66° ENE 06:26:24 10° NNW
Cosmos 1242 Rocket 3.8 06:19:23 10° N 06:22:55 45° ENE 06:26:26 10° SSE
USA 81 4.0 06:18:34 10° S 06:23:50 77° W 06:29:07 10° N
PAYLOAD B 4.2 06:18:33 10° N 06:24:00 63° WNW 06:29:24 10° SSW
SMAP 3.0 06:20:13 10° N 06:24:52 71° WNW 06:29:29 10° SSW
